Regional Weather Roundup
Issued by NWS

Home | Current Version | Previous Version | Text Only | Print | Product List | Glossary Off
Versions: 1 2 3 4 5 6 7 8 9 10 11 12 13 14 15 16 17 18 19 20 21 22 23 24 25 26 27 28 29 30 31 32 33 34 35 36 37 38 39 40 41 42 43 44 45 46 47 48 49 50

000
ASUS43 KLSX 202007
RWRMO

WEATHER SUMMARY FOR MISSOURI
NATIONAL WEATHER SERVICE SPRINGFIELD MO
200 PM CST SAT JAN 20 2018

NOTE: "FAIR" INDICATES FEW OR NO CLOUDS BELOW 12,000 FEET WITH NO
       SIGNIFICANT WEATHER AND/OR OBSTRUCTIONS TO VISIBILITY.
       CURRENT SKY AND/OR WEATHER CONDITIONS ARE NOT AVAILABLE FOR
       CHILLICOTHE AND FARMINGTON.

MOZ001>031-035>038-043-044-053-054-202100-
...NORTHERN AND WESTERN MISSOURI...

CITY           SKY/WX    TMP DP  RH WIND       PRES   REMARKS
KANSAS CTY INT CLOUDY    51  43  74 S9        29.84F
KANSAS C DTWN  CLOUDY    53  43  68 S5        29.84F
LEE`S SUMMIT   CLOUDY    52  45  77 S8        29.85F
ST JOSEPH      CLOUDY    50  45  83 S10       29.84F
CHILLICOTHE      N/A     53  43  68 SW8G16    29.88F
KIRKSVILLE     CLOUDY    52  45  77 SW12      29.89F

$$
MOZ066>068-077>081-088>096-101>105-202100-
...SOUTHWEST MISSOURI...

CITY           SKY/WX    TMP DP  RH WIND       PRES   REMARKS
SPRINGFIELD    SUNNY     63  46  54 S17       29.87F
JOPLIN         SUNNY     63  47  55 S20G26    29.84F
BRANSON        MOSUNNY   61  43  51 S8G16     29.93F

$$
MOZ032>034-039>042-045>050-055>058-069>072-202100-
...CENTRAL MISSOURI...

CITY           SKY/WX    TMP DP  RH WIND       PRES   REMARKS
COLUMBIA       CLOUDY    52  43  71 SE6       29.91F
JEFFERSON CITY CLOUDY    56  44  64 SE7       29.91F
ROLLA          CLOUDY    56  43  61 S15       29.93F
SEDALIA        CLOUDY    56  48  74 S8        29.89F
WHITEMAN AFB   CLOUDY    53  46  76 SW12      29.83F
WARRENSBURG    CLOUDY    52  45  76 S8        29.87F
OSAGE BEACH    CLOUDY    61  46  57 S15       29.90F

$$
MOZ051-052-059>065-202100-
...EAST CENTRAL MISSOURI...

CITY           SKY/WX    TMP DP  RH WIND       PRES   REMARKS
ST LOUIS INTL  PTSUNNY   58  44  60 SW10      29.96F
SPIRIT OF STL  PTSUNNY   59  45  59 W6        29.94F
ST CHARLES     CLOUDY    54  43  66 N3        29.95F

$$
MOZ072>076-082>087-097>100-106>115-202100-
...SOUTH CENTRAL AND SOUTHEAST MISSOURI...

CITY           SKY/WX    TMP DP  RH WIND       PRES   REMARKS
CAPE GIRARDEAU CLOUDY    43  31  62 S10G20    30.06F
FARMINGTON     SUNNY     59  45  59 SW17G23   29.97F
POPLAR BLUFF   CLOUDY    46  36  68 S10       30.05F
WEST PLAINS    PTSUNNY   58  45  62 S14       29.96F

$$



USA.gov is the U.S. government's official web portal to all federal, state and local government web resources and services.